User: anonymous   Login
Location: Unspecified
(0.0000°N, 0.0000°E)
Time: 10:08:47
(UTC+00:00)
Language:

ASTROSAT - Orbit

View from above orbital plane
View from above orbital plane
View from above satellite
View from above satellite

Ground track
Ground track

The orbit is defined by the following mean orbital elements,

1 40930U          26145.15090551 +.00000000 +00000-0 +10243-3 0 00006
2 40930   5.9989 321.1626 0007589  63.2978 296.7926 14.82459854    04
Epoch (UTC): 25 May 2026 03:37:18
Eccentricity: 0.0007589
inclination: 5.9989°
perigee height: 616 km
apogee height: 627 km
right ascension of ascending node: 321.1626°
argument of perigee: 63.2978°
revolutions per day: 14.82459854
mean anomaly at epoch: 296.7926°

The dashed part of the orbit path shows where the satellite is in the earth's shadow,  

DLR